Regional Weather Roundup
Issued by NWS

Home | Current Version | Previous Version | Text Only | Print | Product List | Glossary Off
Versions: 1 2 3 4 5 6 7 8 9 10 11 12 13 14 15 16 17 18 19 20 21 22 23 24 25 26 27 28 29 30 31 32 33 34 35 36 37 38 39 40 41 42 43 44 45 46 47 48 49 50

000
ASUS43 KFSD 052202
RWRSD

WEATHER ROUNDUP FOR SOUTH DAKOTA
NATIONAL WEATHER SERVICE SIOUX FALLS SD
500 PM CDT THU MAY 05 2016

NOTE: "FAIR" INDICATES FEW OR NO CLOUDS BELOW 12,000 FEET WITH NO
SIGNIFICANT WEATHER AND/OR OBSTRUCTIONS TO VISIBILITY.


SDZ001>005-009-010-012>017-052300-
NORTHWEST AND NORTH CENTRAL SOUTH DAKOTA

CITY           SKY/WX    TMP DP  RH WIND       PRES   REMARKS
BUFFALO          N/A     86  37  17 W5        29.81F
FAITH            N/A     82  51  34 S9        29.85F
MOBRIDGE         N/A     88  32  13 S17       29.80F
$$

SDZ012>016-024>037-041>051-057-063-072>074-052300-
SOUTHWEST AND SOUTH CENTRAL SOUTH DAKOTA

CITY           SKY/WX    TMP DP  RH WIND       PRES   REMARKS
RAPID CTY ARPT CLOUDY    82  46  28 SE10      29.88F
PIERRE         SUNNY     86  49  27 S20       29.83F
CUSTER         CLOUDY    77  26  15 CALM      30.02S
ELLSWORTH AFB  MOSUNNY   83  44  25 SE8       29.88F
PHILIP         SUNNY     88  43  20 S6        29.82F
PINE RIDGE     SUNNY     86  33  15 W10       29.90F
WINNER         LGT RAIN  86  46  24 S15G22    29.89F
$$

SDZ004>011-016>023-039-040-052300-
NORTHEAST SOUTH DAKOTA

CITY           SKY/WX    TMP DP  RH WIND       PRES   REMARKS
ABERDEEN       SUNNY     89  37  16 SW15G26   29.85F
WATERTOWN      SUNNY     83  42  23 S15       29.91F
BROOKINGS      SUNNY     81  44  27 S14       29.93F
SISSETON         N/A     86  38  18 SW18      29.84F
$$

SDZ017-020-022-023-036>040-048>070-052300-
SOUTHEAST SOUTH DAKOTA

CITY           SKY/WX    TMP DP  RH WIND       PRES   REMARKS
SIOUX FALLS    MOSUNNY   76  50  40 S10       29.96F
HURON          SUNNY     83  40  21 S16G24    29.88F
MITCHELL       SUNNY     83  42  23 S12G18    29.91F
YANKTON        SUNNY     81  43  26 SW8       29.93F
$$

ABBREVIATIONS USED IN REMARKS
   TC - TEMPERATURE IN CELSIUS
  WCI - WIND CHILL INDEX
   HX - HEAT INDEX
  VSB - VISIBILITY




USA.gov is the U.S. government's official web portal to all federal, state and local government web resources and services.